Regional Weather Roundup
Issued by NWS

Home | Current Version | Previous Version | Graphics & Text | Print | Product List | Glossary On
Versions: 1 2 3 4 5 6 7 8 9 10 11 12 13 14 15 16 17 18 19 20 21 22 23 24 25 26 27 28 29 30 31 32 33 34 35 36 37 38 39 40 41 42 43 44 45 46 47 48 49 50
000
ASUS43 KOAX 260302
RWRNE

WEATHER ROUNDUP FOR NEBRASKA
NATIONAL WEATHER SERVICE OMAHA NE
900 PM CST THU DEC 25 2014

NOTES: SATELLITE DATA IS BEING USED TO AUGMENT CLOUD COVER ABOVE
       12000 FEET.
       "FAIR" INDICATES FEW OR NO CLOUDS BELOW 12,000 FEET WITH NO
       SIGNIFICANT WEATHER AND/OR OBSTRUCTIONS TO VISIBILITY.

  * THESE STATIONS DO NOT REPORT WEATHER SUCH AS RAIN...SNOW OR FOG.

NEZ001>004-019>022-054>056-260400-
NEBRASKA PANHANDLE

CITY           SKY/WX    TMP DP  RH WIND       PRES   REMARKS
SCOTTSBLUFF    LGT SNOW  23  20  88 N15       29.86R VSB 3/4 WCI  10
ALLIANCE       LGT SNOW  22  20  92 N21       29.83R FOG     WCI   6
CHADRON        LGT SNOW  24  21  88 NE13      29.92R FOG     WCI  12
SIDNEY         LGT SNOW  22  19  89 N21G32    29.77R FOG     WCI   6
$$

NEZ057>060-069>072-079>082-260400-
SOUTHWEST NEBRASKA

CITY           SKY/WX    TMP DP  RH WIND       PRES   REMARKS
NORTH PLATTE   CLOUDY    29  26  89 N14       29.77R WCI  18
IMPERIAL       CLOUDY    29  23  78 NE20G29   29.76R WCI  16
LEXINGTON      CLOUDY    32  28  86 N17G24    29.73R WCI  21
MCCOOK         PTCLDY    29  25  85 N17       29.71R WCI  17
$$

NEZ005>010-023>029-035>040-094-260400-
NORTH CENTRAL NEBRASKA

CITY           SKY/WX    TMP DP  RH WIND       PRES   REMARKS
VALENTINE      LGT SNOW  25  22  88 N14       29.87R FOG     WCI  13
AINSWORTH      CLOUDY    25  24  93 N23       29.83R WCI  10
BROKEN BOW     LGT SNOW  30  27  88 N22G35    29.75R FOG     WCI  17
ORD            CLOUDY    32  28  85 N17       29.75R WCI  21
$$

NEZ041-046>049-061>064-073>077-083>087-260400-
SOUTH CENTRAL NEBRASKA

CITY           SKY/WX    TMP DP  RH WIND       PRES   REMARKS
GRAND ISLAND   CLEAR     30  26  85 N16       29.72R WCI  19
AURORA         CLEAR     32  30  94 N15       29.69R WCI  21
HASTINGS       CLEAR     31  26  82 N18       29.68R WCI  19
HEBRON         PTCLDY    32  27  80 CALM      29.65R
KEARNEY *      CLOUDY    30  27  86 N23       29.71R WCI  17
$$

NEZ011>018-030>034-042>045-260400-
NORTHEAST NEBRASKA

CITY           SKY/WX    TMP DP  RH WIND       PRES   REMARKS
NORFOLK        CLOUDY    35  31  85 N9        29.73R WCI  28
BLAIR          PTCLDY    41  32  70 SE6       29.68R
COLUMBUS *     CLEAR     32  27  80 N15       29.71S WCI  22
TEKAMAH        CLEAR     35  31  85 N13       29.71R WCI  26
$$

NEZ050>053-065>068-078-088>093-260400-
SOUTHEAST NEBRASKA

CITY           SKY/WX    TMP DP  RH WIND       PRES   REMARKS
LINCOLN        PTCLDY    32  28  85 N5        29.69R WCI  27
OMAHA EPPLEY   MOCLDY    38  31  76 CALM      29.71R
BEATRICE       PTCLDY    42  30  63 S6        29.67R
FALLS CITY     MOCLDY    39  30  70 SE7       29.71R WCI  34
NEBRASKA CITY  MOCLDY    38  29  69 S8        29.70R WCI  32
$$

NEZ044-045-051>053-067-260400-
OMAHA AREA

CITY           SKY/WX    TMP DP  RH WIND       PRES   REMARKS
OMAHA EPPLEY   MOCLDY    38  31  76 CALM      29.71R
BLAIR          PTCLDY    41  32  70 SE6       29.68R
OFFUTT AFB     PTCLDY    32  29  90 CALM      29.69R
WAHOO          FAIR      31  28  86 NW6       29.68S WCI  25
$$



USA.gov is the U.S. government's official web portal to all federal, state and local government web resources and services.